Weather History for Bangkok (Don Mueang), Thailand

Change the Weather History Date:

Friday, March 14, 2014

  Actual Average Record
Temperature  
Mean Temperature 86 °F -  
Max Temperature 96 °F 93 °F 99 °F (2013)
Min Temperature 77 °F 77 °F 71 °F (2001)
Cooling Degree Days 22    
Growing Degree Days 36 (Base 50)    
Moisture  
Dew Point 74 °F    
Average Humidity 68    
Maximum Humidity 94    
Minimum Humidity 39    
Precipitation  
Precipitation 0.00 in 0.06 in - ()
Sea Level Pressure  
Sea Level Pressure 29.86 in    
Wind  
Wind Speed 7 mph ()    
Max Wind Speed 13 mph    
Max Gust Speed -    
Visibility 5.8 miles    
Events      
Averages and records for this station are not official NWS values.
T = Trace of Precipitation, MM = Missing Value Source: Averaged Metar Reports

Daily Weather History Graph

Daily Weather History Graph

Search for Another Location

Airport:

Trip Planner

Search our weather history database for the weather conditions in past years. The results will help you decide how hot, cold, wet, or windy it might be!

Date:

Astronomy

Mar. 14, 2014 Rise Set
Actual Time 6:26 AM ICT 6:27 PM ICT
Civil Twilight 6:04 AM ICT 6:49 PM ICT
Nautical Twilight 5:40 AM ICT 7:13 PM ICT
Astronomical Twilight 5:15 AM ICT 7:38 PM ICT
Moon 4:34 PM ICT (3/14) 4:30 AM ICT (3/14)
Length of Visible Light 12h 44m
Length of Day
12h 01m
Waxing Gibbous, 94% of the Moon is Illuminated
Mar 14
Waxing Gibbous
Mar 17
Full
Mar 24
Last Quarter
Mar 31
New
Apr 7
First Quarter

Hourly Weather History & Observations

Time (ICT) Temp. Heat Index Dew Point Humidity Pressure Visibility Wind Dir Wind Speed Gust Speed Precip Events Conditions
12:00 AM 82.4 °F 89.5 °F 75.2 °F 79% 29.86 in - South 6.9 mph - N/A   Clear
12:30 AM 82.4 °F 89.5 °F 75.2 °F 79% 29.86 in - SSW 6.9 mph - N/A   Clear
1:00 AM 82 °F - 75 °F 74% 29.86 in 6 mi SSW 8.1 mph - -   Clear
1:00 AM 82.4 °F 89.5 °F 75.2 °F 79% 29.86 in - SSW 8.1 mph - N/A   Clear
1:30 AM 80.6 °F 86.2 °F 75.2 °F 84% 29.83 in - SSW 6.9 mph - N/A   Clear
2:00 AM 80.6 °F 86.2 °F 75.2 °F 84% 29.83 in - South 4.6 mph - N/A   Clear
2:30 AM 80.6 °F 86.2 °F 75.2 °F 84% 29.83 in - SSW 4.6 mph - N/A   Clear
3:00 AM 80.6 °F 85.4 °F 73.4 °F 79% 29.83 in - SSW 4.6 mph - N/A   Clear
3:30 AM 80.6 °F 86.2 °F 75.2 °F 84% 29.83 in - SSE 5.8 mph - N/A   Clear
4:00 AM 80 °F - 74 °F 79% 29.84 in 6 mi South 4.6 mph - -   Clear
4:00 AM 80.6 °F 86.2 °F 75.2 °F 84% 29.83 in - South 4.6 mph - N/A   Clear
4:30 AM 78.8 °F - 75.2 °F 89% 29.83 in - SSE 4.6 mph - N/A   Clear
5:00 AM 78.8 °F - 75.2 °F 89% 29.83 in - SE 4.6 mph - N/A   Clear
5:30 AM 78.8 °F - 75.2 °F 89% 29.83 in - SE 3.5 mph - N/A   Clear
6:00 AM 78.8 °F - 75.2 °F 89% 29.86 in 5.6 mi East 4.6 mph - N/A   Unknown
6:30 AM 77.0 °F - 75.2 °F 94% 29.89 in 4.3 mi ENE 4.6 mph - N/A   Scattered Clouds
7:00 AM 78 °F - 75 °F 88% 29.89 in 4 mi East 4.6 mph - -   Mist
7:00 AM 78.8 °F - 75.2 °F 89% 29.89 in 4.3 mi East 4.6 mph - N/A   Scattered Clouds
7:30 AM 78.8 °F - 75.2 °F 89% 29.92 in 5.0 mi ESE 4.6 mph - N/A   Unknown
8:30 AM 82.4 °F 90.9 °F 77.0 °F 84% 29.92 in 5.0 mi SE 5.8 mph - N/A   Unknown
9:00 AM 86.0 °F 95.1 °F 75.2 °F 70% 29.92 in 5.0 mi South 9.2 mph - N/A   Unknown
9:30 AM 87.8 °F 95.6 °F 73.4 °F 62% 29.95 in 5.6 mi SSE 10.4 mph - N/A   Unknown
10:00 AM 89 °F - 73 °F 51% 29.95 in 6 mi SSE 11.5 mph - -   Clear
10:00 AM 89.6 °F 98.2 °F 73.4 °F 59% 29.95 in - SSE 11.5 mph - N/A   Clear
10:30 AM 91.4 °F 100.1 °F 73.4 °F 55% 29.95 in - South 8.1 mph - N/A   Clear
11:00 AM 93.2 °F 102.4 °F 73.4 °F 52% 29.95 in - SSE 9.2 mph - N/A   Clear
11:30 AM 93.2 °F 102.4 °F 73.4 °F 52% 29.92 in - South 9.2 mph - N/A   Clear
12:00 PM 95.0 °F 103.2 °F 71.6 °F 47% 29.89 in - SSW 6.9 mph - N/A   Clear
12:30 PM 95.0 °F 103.2 °F 71.6 °F 47% 29.89 in - SSW 9.2 mph - N/A   Clear
1:00 PM 95 °F - 72 °F 39% 29.87 in 6 mi South 8.1 mph - -   Clear
1:00 PM 95.0 °F 104.5 °F 73.4 °F 49% 29.86 in - South 8.1 mph - N/A   Clear
1:30 PM 96.8 °F 107.3 °F 73.4 °F 47% 29.86 in - South 10.4 mph - N/A   Clear
2:00 PM 95.0 °F 104.5 °F 73.4 °F 49% 29.83 in 6.2 mi South 11.5 mph - N/A   Scattered Clouds
2:30 PM 95.0 °F 104.5 °F 73.4 °F 49% 29.83 in 6.2 mi SSW 11.5 mph - N/A   Scattered Clouds
3:00 PM 95.0 °F 104.5 °F 73.4 °F 49% 29.80 in 6.2 mi SSW 10.4 mph - N/A   Scattered Clouds
3:30 PM 95.0 °F 104.5 °F 73.4 °F 49% 29.80 in 6.2 mi South 10.4 mph - N/A   Scattered Clouds
4:00 PM 94 °F - 73 °F 42% 29.80 in 6 mi SSW 10.4 mph - -   Clear
4:00 PM 95.0 °F 104.5 °F 73.4 °F 49% 29.80 in - SSW 10.4 mph - N/A   Clear
4:30 PM 93.2 °F 105.0 °F 75.2 °F 56% 29.80 in 6.2 mi SSW 11.5 mph - N/A   Scattered Clouds
5:00 PM 93.2 °F 105.0 °F 75.2 °F 56% 29.80 in 6.2 mi SSW 10.4 mph - N/A   Scattered Clouds
5:30 PM 91.4 °F 102.5 °F 75.2 °F 59% 29.80 in 6.2 mi SSW 10.4 mph - N/A   Scattered Clouds
6:00 PM 89.6 °F 98.2 °F 73.4 °F 59% 29.80 in 6.2 mi SSW 9.2 mph - N/A   Scattered Clouds
6:30 PM 87.8 °F 93.8 °F 71.6 °F 58% 29.80 in 6.2 mi SSW 9.2 mph - N/A   Scattered Clouds
7:00 PM 87 °F - 71 °F 50% 29.83 in 6 mi SSW 8.1 mph - -   Scattered Clouds
7:00 PM 87.8 °F 93.8 °F 71.6 °F 58% 29.83 in 6.2 mi SSW 8.1 mph - N/A   Scattered Clouds
7:30 PM 86.0 °F 91.8 °F 71.6 °F 62% 29.83 in 6.2 mi SSW 8.1 mph - N/A   Scattered Clouds
8:00 PM 86.0 °F 95.1 °F 75.2 °F 70% 29.83 in 6.2 mi South 9.2 mph - N/A   Scattered Clouds
8:30 PM 84.2 °F 92.3 °F 75.2 °F 74% 29.86 in 6.2 mi South 10.4 mph - N/A   Scattered Clouds
9:00 PM 84.2 °F 92.3 °F 75.2 °F 74% 29.86 in 6.2 mi South 10.4 mph - N/A   Scattered Clouds
9:30 PM 84.2 °F 92.3 °F 75.2 °F 74% 29.89 in - SSW 10.4 mph - N/A   Clear
10:00 PM 84 °F - 75 °F 68% 29.88 in 6 mi South 9.2 mph - -   Clear
10:00 PM 84.2 °F 92.3 °F 75.2 °F 74% 29.89 in - South 9.2 mph - N/A   Clear
10:30 PM 84.2 °F 92.3 °F 75.2 °F 74% 29.89 in - South 9.2 mph - N/A   Clear
11:00 PM 84.2 °F 92.3 °F 75.2 °F 74% 29.89 in - South 12.7 mph - N/A   Clear
11:30 PM 82.4 °F 90.9 °F 77.0 °F 84% 29.89 in - South 9.2 mph - N/A   Clear